TimeEDT,TemperatureF,Dew PointF,Humidity,Sea Level PressureIn,VisibilityMPH,Wind Direction,Wind SpeedMPH,Gust SpeedMPH,PrecipitationIn,Events,Conditions,WindDirDegrees,DateUTC
12:54 AM,44.1,30.9,60,29.85,10.0,West,10.4,-,N/A,,Overcast,280,2012-10-06 04:54:00
1:54 AM,44.1,32.0,63,29.84,10.0,West,6.9,-,0.00,,Overcast,270,2012-10-06 05:54:00
2:54 AM,44.1,33.1,65,29.83,10.0,West,9.2,-,N/A,,Overcast,260,2012-10-06 06:54:00
3:54 AM,42.1,34.0,73,29.82,10.0,West,6.9,-,0.00,,Mostly Cloudy,270,2012-10-06 07:54:00
4:54 AM,44.1,35.1,71,29.82,10.0,West,10.4,19.6,N/A,,Overcast,270,2012-10-06 08:54:00
5:54 AM,42.1,37.9,85,29.82,6.0,NW,11.5,-,0.02,Rain,Light Rain,310,2012-10-06 09:54:00
6:23 AM,41.0,37.4,87,29.81,10.0,WNW,8.1,-,0.01,,Overcast,290,2012-10-06 10:23:00
6:54 AM,41.0,37.0,86,29.83,10.0,WNW,11.5,-,0.01,,Overcast,300,2012-10-06 10:54:00
7:54 AM,41.0,37.0,86,29.85,10.0,WNW,13.8,18.4,0.00,,Mostly Cloudy,300,2012-10-06 11:54:00
8:54 AM,41.0,37.0,86,29.87,10.0,WNW,13.8,24.2,0.01,Rain,Light Rain,300,2012-10-06 12:54:00
9:54 AM,42.1,37.0,82,29.89,9.0,NW,18.4,27.6,0.00,Rain,Light Rain,310,2012-10-06 13:54:00
10:19 AM,42.8,37.4,81,29.89,8.0,NW,19.6,28.8,0.00,Rain,Light Rain,310,2012-10-06 14:19:00
10:54 AM,39.0,36.0,89,29.92,7.0,NW,16.1,26.5,0.00,Rain,Light Rain,320,2012-10-06 14:54:00
11:54 AM,41.0,37.0,86,29.94,7.0,NW,15.0,24.2,0.02,Rain,Light Rain,310,2012-10-06 15:54:00
12:04 PM,41.0,35.6,81,29.92,10.0,West,13.8,-,0.00,,Overcast,280,2012-10-06 16:04:00
12:54 PM,44.1,35.1,71,29.96,10.0,NW,17.3,23.0,0.00,,Mostly Cloudy,310,2012-10-06 16:54:00
1:54 PM,45.0,34.0,65,29.96,10.0,WNW,13.8,25.3,0.00,,Mostly Cloudy,300,2012-10-06 17:54:00
2:54 PM,46.0,33.1,61,29.98,9.0,NNW,19.6,-,0.00,Rain,Light Rain,330,2012-10-06 18:54:00
3:54 PM,46.0,32.0,58,30.00,10.0,NW,19.6,28.8,0.00,,Mostly Cloudy,320,2012-10-06 19:54:00
4:54 PM,46.0,30.0,54,30.01,10.0,NW,20.7,27.6,0.00,,Clear,320,2012-10-06 20:54:00
5:54 PM,43.0,33.1,68,30.04,10.0,NW,19.6,27.6,N/A,,Scattered Clouds,310,2012-10-06 21:54:00
6:54 PM,41.0,30.0,65,30.06,10.0,NW,12.7,-,N/A,,Partly Cloudy,320,2012-10-06 22:54:00
7:54 PM,36.0,30.0,79,30.09,10.0,NW,5.8,-,N/A,,Partly Cloudy,310,2012-10-06 23:54:00
8:54 PM,39.9,28.9,65,30.09,10.0,NNW,10.4,-,N/A,,Mostly Cloudy,340,2012-10-07 00:54:00
9:54 PM,36.0,28.9,76,30.11,10.0,WNW,5.8,-,N/A,,Clear,300,2012-10-07 01:54:00
10:54 PM,34.0,28.0,79,30.12,10.0,West,3.5,-,N/A,,Clear,280,2012-10-07 02:54:00
11:54 PM,28.9,27.0,92,30.12,10.0,Calm,Calm,-,N/A,,Clear,0,2012-10-07 03:54:00